Regional Weather Roundup
Issued by NWS State College, PA

Current Version | Previous Version | Text Only | Print | Product List | Glossary On
Versions: 1 2 3 4 5 6 7 8 9 10 11 12 13 14 15 16 17 18 19 20 21 22 23 24 25 26 27 28 29 30 31 32 33 34 35 36 37 38 39 40 41 42 43 44 45 46 47 48 49 50
000
ASUS41 KCTP 251710
RWRCTP

REGIONAL WEATHER ROUNDUP
NATIONAL WEATHER SERVICE STATE COLLEGE PA
1200 PM EST SUN FEB 25 2018

Note: "fair" indicates few or no clouds below 12,000 feet with no
significant weather and/or obstructions to visibility.

* = STATION THAT DOES NOT REPORT PRECIPITATION /E.G. RAIN...SNOW...ETC/
    THUNDER OR FOG.

PAZ002>004-007>009-013>016-020>023-029>032-251800-
WESTERN PENNSYLVANIA

CITY           SKY/WX    TMP DP  RH WIND       PRES   REMARKS
ERIE           FAIR      43  35  73 W18G24    29.84R
MEADVILLE      FAIR      49  33  54 W15       29.84S
FRANKLIN*      FAIR      52  31  44 W13G22    29.86R
NEW CASTLE     FAIR      52  31  44 W14G24    29.88R
BEAVER COUNTY  SUNNY     52  37  58 W8        29.88R
BUTLER*        FAIR      55  36  48 SW12      29.87R
PITTSBURGH INT CLOUDY    56  38  50 SW9       29.88R
PITTSBURGH     PTSUNNY   56  43  61 W10       29.89R
INDIANA*       CLOUDY    55  50  82 W15       29.91R
LATROBE        PTSUNNY   52  45  76 W12G23    29.91R
WASHINGTON CO* FAIR      55  36  48 W15G22    29.93R
$$

PAZ004>006-010>012-017>019-024>028-033>037-041-042-045-046-049>053-251800-
CENTRAL PENNSYLVANIA

CITY           SKY/WX    TMP DP  RH WIND       PRES   REMARKS
BRADFORD       PTSUNNY   53  34  48 W10G25    29.82R
DUBOIS         CLOUDY    52  37  56 W16G28    29.84R
CLEARFIELD     LGT RAIN  46  45  96 N9        29.88R FOG
JOHNSTOWN      CLOUDY    54  50  86 SW14G21   29.86S
ALTOONA        CLOUDY    48  45  89 S5        29.89F
STATE COLLEGE  CLOUDY    46  45  93 S9        29.88F
WILLIAMSPORT   CLOUDY    46  41  82 SE7       29.90F
SELINSGROVE    CLOUDY    46  42  86 S8        29.94F
FT INDIANTOWN  CLOUDY    45  45 100 NE3       29.96R
CAPITAL CITY   CLOUDY    47  44  90 CALM      29.97R
HARRISBURG     CLOUDY    47  43  86 CALM      29.97R
YORK           CLOUDY    48  47  96 NW6       29.97R
$$

PAZ038>040-043-044-047-048-054-055-060>062-067>071-251800-
EASTERN PENNSYLVANIA

CITY           SKY/WX    TMP DP  RH WIND       PRES   REMARKS
SCRANTON       CLOUDY    46  41  82 S6        29.95R
MOUNT POCONO   FOG       37  37 100 E10       29.90R VSB 1/4
ALLENTOWN      LGT RAIN  46  41  82 E13       29.93F
QUAKERTOWN*    CLOUDY    43  43 100 VRB7      29.93F
READING        CLOUDY    47  45  93 N3        29.94F
LANCASTER      CLOUDY    46  43  89 NW3       29.98R
COATESVILLE    CLOUDY    45  43  93 SE12      29.91F
POTTSTOWN      LGT RAIN  43  43 100 E8        29.93F
BLUE BELL      CLOUDY    43  43 100 E7        29.95F
DOYLESTOWN     LGT RAIN  43  43 100 VRB3      29.93F
WILLOW GROVE   NOT AVBL
NORTH PHILA    CLOUDY    47  43  86 E10       29.95F
PHILADELPHIA   LGT RAIN  46  44  93 NE8       29.98F
$$



USA.gov is the U.S. government's official web portal to all federal, state and local government web resources and services.